DW9593 Weather Reports


time (UTC)temp
F
wind
direction
speed
knots
gust
knots
rain 1hr
in
rain 24hr
in
rain mn
in
humidity
%
barometer
mb
20240614124517 75 0 0.9 5.2 0.00 0.00 0.00 22 1012.6
20240614123516 74 360 0.9 4.3 0.00 0.00 0.00 22 1012.5
20240614122602 74 0.0 1.7 0.00 0.00 0.00 23 1012.5
20240614121517 74 360 0.0 4.3 0.00 0.00 0.00 23 1012.5
20240614120516 74 360 0.0 0.9 0.00 0.00 0.00 22 1012.6
20240614115536 75 0.0 0.0 0.00 0.00 0.00 22 1012.6
20240614114516 75 0.0 0.0 0.00 0.00 0.00 21 1012.6
20240614113516 75 0.0 0.0 0.00 0.00 0.00 21 1012.5
20240614112516 75 360 0.0 0.9 0.00 0.00 0.00 22 1012.4
20240614111517 75 0.0 0.0 0.00 0.00 0.00 22 1012.3
20240614110517 75 0.0 0.0 0.00 0.00 0.00 21 1012.3
20240614105516 76 0.0 0.0 0.00 0.00 0.00 21 1012.1
20240614104516 77 0.0 0.0 0.00 0.00 0.00 21 1012.0
20240614103516 77 0.0 0.0 0.00 0.00 0.00 21 1012.0
20240614102516 79 0.0 0.0 0.00 0.00 0.00 20 1012.2
20240614101516 79 0.0 0.0 0.00 0.00 0.00 19 1012.3
20240614100516 79 0.0 0.0 0.00 0.00 0.00 19 1012.2
20240614095517 79 0.0 0.0 0.00 0.00 0.00 19 1012.1
20240614094518 80 0.0 0.9 0.00 0.00 0.00 19 1012.0
20240614093516 81 0.0 0.0 0.00 0.00 0.00 18 1012.3
20240614092516 82 0.0 0.0 0.00 0.00 0.00 18 1012.4
20240614091517 82 0.0 0.0 0.00 0.00 0.00 18 1012.6
20240614090516 83 0.0 0.0 0.00 0.00 0.00 17 1012.8
20240614085516 83 0.0 0.0 0.00 0.00 0.00 17 1013.0
20240614084517 84 0.0 0.0 0.00 0.00 0.00 16 1013.0
20240614083516 84 0.0 0.0 0.00 0.00 0.00 16 1013.2
20240614082517 85 0.0 1.7 0.00 0.00 0.00 16 1013.1
20240614081517 85 360 0.0 3.5 0.00 0.00 0.00 15 1013.1
20240614080516 85 360 0.0 5.2 0.00 0.00 0.00 15 1013.1
20240614075521 85 360 0.9 5.2 0.00 0.00 0.00 15 1013.3
20240614074537 85 360 1.7 6.1 0.00 0.00 0.00 15 1013.3
20240614073556 85 360 0.9 5.2 0.00 0.00 0.00 15 1013.4
20240614072517 85 360 0.0 4.3 0.00 0.00 0.00 15 1013.5
20240614071516 86 360 0.9 7.0 0.00 0.00 0.00 15 1013.5
20240614070516 86 360 0.9 4.3 0.00 0.00 0.00 15 1013.6
20240614065515 86 360 0.9 5.2 0.00 0.00 0.00 15 1013.6
20240614064516 87 360 1.7 5.2 0.00 0.00 0.00 15 1013.7
20240614063515 87 360 0.9 4.3 0.00 0.00 0.00 15 1013.7
20240614062515 87 360 0.9 4.3 0.00 0.00 0.00 15 1013.8
20240614061515 88 360 0.0 3.5 0.00 0.00 0.00 15 1013.8
20240614060516 88 0.0 0.9 0.00 0.00 0.00 14 1013.6
20240614055515 89 360 0.0 6.1 0.00 0.00 0.00 14 1013.5
20240614054516 89 360 3.5 7.0 0.00 0.00 0.00 14 1013.5
20240614053515 89 360 2.6 7.0 0.00 0.00 0.00 13 1013.5
20240614052515 89 360 2.6 7.8 0.00 0.00 0.00 13 1013.5
20240614051515 89 360 3.5 7.0 0.00 0.00 0.00 13 1013.5
20240614050515 89 360 3.5 6.1 0.00 0.00 0.00 13 1013.3
20240614045515 90 360 2.6 7.8 0.00 0.00 0.00 13 1013.3
20240614044516 90 360 3.5 6.1 0.00 0.00 0.00 13 1013.5
20240614043515 90 360 1.7 4.3 0.00 0.00 0.00 13 1013.4
20240614042515 90 360 2.6 7.0 0.00 0.00 0.00 13 1013.6
20240614041515 90 360 0.9 3.5 0.00 0.00 0.00 13 1013.3
20240614040515 91 0.0 0.0 0.00 0.00 0.00 13 1013.0
20240614035516 91 360 0.0 0.9 0.00 0.00 0.00 13 1013.0
20240614034516 91 0.0 0.0 0.00 0.00 0.00 13 1013.0
20240614033535 92 0.0 0.0 0.00 0.00 0.00 13 1012.9
20240614032515 93 360 0.0 0.9 0.00 0.00 0.00 12 1013.0
20240614031556 94 0.0 1.7 0.00 0.00 0.00 11 1012.9
20240614030515 95 0.0 0.0 0.00 0.00 0.00 11 1012.7
20240614025515 95 0.0 0.0 0.00 0.00 0.00 11 1012.7
20240614024515 95 360 0.0 0.9 0.00 0.00 0.00 11 1012.7
20240614023515 96 360 0.0 2.6 0.00 0.00 0.00 10 1012.8
20240614022515 96 360 0.9 5.2 0.00 0.00 0.00 10 1012.7
20240614021515 97 360 1.7 6.1 0.00 0.00 0.00 10 1012.7
20240614020515 98 360 4.3 7.8 0.00 0.00 0.00 10 1012.5
20240614015515 98 360 3.5 7.0 0.00 0.00 0.00 9 1012.5
20240614014516 98 360 1.7 7.8 0.00 0.00 0.00 9 1012.6
20240614013515 99 360 3.5 7.8 0.00 0.00 0.00 9 1012.6
20240614012535 99 360 3.5 10.4 0.00 0.00 0.00 9 1012.4
20240614011515 99 360 4.3 9.6 0.00 0.00 0.00 9 1012.1
20240614010515 100 360 5.2 9.6 0.00 0.00 0.00 9 1012.3
20240614005515 100 360 4.3 12.2 0.00 0.00 0.00 9 1012.2
20240614004515 100 360 5.2 10.4 0.00 0.00 0.00 9 1012.2
20240614003515 100 360 5.2 12.2 0.00 0.00 0.00 8 1012.1
20240614002515 100 360 4.3 9.6 0.00 0.00 0.00 8 1012.4
20240614001515 101 360 4.3 12.2 0.00 0.00 0.00 8 1012.3
20240614000515 102 360 4.3 10.4 0.00 0.00 0.00 8 1012.5
20240613235515 102 360 3.5 7.8 0.00 0.00 0.00 8 1012.8
20240613234515 102 360 2.6 7.8 0.00 0.00 0.00 8 1012.8
20240613233518 101 360 1.7 7.8 0.00 0.00 0.00 8 1012.8
20240613232515 101 360 2.6 7.0 0.00 0.00 0.00 8 1012.7
20240613231515 101 360 1.7 6.1 0.00 0.00 0.00 9 1012.9
20240613230535 100 360 2.6 7.0 0.00 0.00 0.00 9 1012.9
20240613225515 100 360 1.7 5.2 0.00 0.00 0.00 9 1013.1
20240613224515 98 360 0.0 1.7 0.00 0.00 0.00 10 1013.1
20240613223515 97 360 0.0 1.7 0.00 0.00 0.00 10 1013.2
20240613222515 97 0.0 0.0 0.00 0.00 0.00 10 1013.2
20240613221515 96 360 0.0 5.2 0.00 0.00 0.00 10 1013.5
20240613220516 96 360 2.6 5.2 0.00 0.00 0.00 10 1013.7
20240613215520 96 360 0.9 4.3 0.00 0.00 0.00 10 1013.8
20240613214515 96 360 0.0 2.6 0.00 0.00 0.00 10 1014.0
20240613213540 96 360 0.9 5.2 0.00 0.00 0.00 9 1013.8
20240613212515 97 360 1.7 6.1 0.00 0.00 0.00 9 1014.1
20240613211515 97 360 3.5 7.0 0.00 0.00 0.00 9 1014.2
20240613210515 97 360 2.6 8.7 0.00 0.00 0.00 9 1014.6
20240613205515 98 360 4.3 8.7 0.00 0.00 0.00 9 1014.7
20240613204515 98 360 3.5 8.7 0.00 0.00 0.00 9 1014.9
20240613203535 98 360 4.3 11.3 0.00 0.00 0.00 9 1015.0
20240613202515 98 360 3.5 11.3 0.00 0.00 0.00 9 1014.8
20240613201515 97 360 5.2 10.4 0.00 0.00 0.00 9 1014.8
20240613200515 97 359 4.3 11.3 0.00 0.00 0.00 9 1015.0
20240613195515 97 359 4.3 8.7 0.00 0.00 0.00 9 1015.0
20240613194515 98 360 4.3 9.6 0.00 0.00 0.00 9 1015.2
20240613193520 97 360 2.6 7.0 0.00 0.00 0.00 10 1015.2
20240613192515 98 360 1.7 6.1 0.00 0.00 0.00 9 1015.2
20240613191535 97 360 2.6 7.0 0.00 0.00 0.00 10 1015.1
20240613190515 98 360 3.5 7.0 0.00 0.00 0.00 9 1015.5
20240613185515 98 358 2.6 7.0 0.00 0.00 0.00 9 1015.7
20240613184515 98 360 2.6 7.8 0.00 0.00 0.00 9 1015.8
20240613183515 98 360 3.5 7.8 0.00 0.00 0.00 9 1015.8
20240613182520 99 360 4.3 8.7 0.00 0.00 0.00 9 1015.9
20240613181515 98 360 2.6 7.0 0.00 0.00 0.00 10 1015.9
20240613180516 98 360 2.6 6.1 0.00 0.00 0.00 9 1015.7
20240613175515 97 360 2.6 6.1 0.00 0.00 0.00 10 1015.7
20240613174515 97 360 2.6 6.1 0.00 0.00 0.00 10 1015.6
20240613173515 96 360 2.6 7.0 0.00 0.00 0.00 10 1015.8
20240613172515 96 360 0.9 4.3 0.00 0.00 0.00 10 1015.8
20240613171517 96 360 0.0 3.5 0.00 0.00 0.00 10 1015.8
20240613170517 95 360 0.9 6.1 0.00 0.00 0.00 10 1015.6
20240613165517 95 360 4.3 8.7 0.00 0.00 0.00 10 1015.9
20240613164517 94 360 3.5 8.7 0.00 0.00 0.00 11 1015.8
20240613163517 94 360 0.0 2.6 0.00 0.00 0.00 12 1015.9
20240613162517 93 360 1.7 7.8 0.00 0.00 0.00 12 1015.8
20240613161517 92 360 0.0 3.5 0.00 0.00 0.00 13 1015.8
20240613160538 90 360 2.6 5.2 0.00 0.00 0.00 13 1016.0
20240613155517 90 0 0.9 3.5 0.00 0.00 0.00 11 1016.0
20240613154517 89 360 0.9 4.3 0.00 0.00 0.00 12 1015.5
20240613153537 89 0 0.9 4.3 0.00 0.00 0.00 13 1015.7
20240613152517 88 360 0.0 3.5 0.00 0.00 0.00 13 1015.9
20240613151517 87 360 0.0 1.7 0.00 0.00 0.00 14 1016.1
20240613150517 87 360 0.0 1.7 0.00 0.00 0.00 15 1015.9
20240613145517 86 0.0 0.0 0.00 0.00 0.00 17 1016.0
20240613144517 85 360 0.0 0.9 0.00 0.00 0.00 15 1015.9
20240613143517 85 0.0 1.7 0.00 0.00 0.00 15 1015.9
20240613142517 84 360 0.0 2.6 0.00 0.00 0.00 16 1015.8
20240613141517 83 0.0 0.0 0.00 0.00 0.00 17 1015.9
20240613140517 81 360 0.0 0.9 0.00 0.00 0.00 18 1015.8
20240613135517 80 360 0.0 1.7 0.00 0.00 0.00 19 1015.8
20240613134537 79 360 0.0 3.5 0.00 0.00 0.00 20 1015.6
20240613133517 79 0.0 0.0 0.00 0.00 0.00 20 1015.4
20240613132517 78 0.0 0.0 0.00 0.00 0.00 19 1015.4
20240613131517 78 0.0 0.9 0.00 0.00 0.00 18 1015.2
20240613130517 78 0.0 0.0 0.00 0.00 0.00 18 1015.2
20240613125516 77 0.0 0.9 0.00 0.00 0.00 18 1015.1